This is the latest recevied weather packets stored in our database for station/object SR4DIG-13. If no packets are shown the sender has not sent any weather packets the latest 10 day(s).
| Time | Temp. | Humidity | Pressure | Rain* | Wind** | Luminosity | Snow |
|---|---|---|---|---|---|---|---|
| 1777923173 | 21.11° C | 36% | 1009.9 hPa | 0 mm | - | - | - |
| 1777922872 | 21.11° C | 36% | 1009.9 hPa | 0 mm | - | - | - |
| 1777922571 | 21.11° C | 36% | 1009.9 hPa | 0 mm | - | - | - |
| 1777922270 | 21.11° C | 36% | 1009.9 hPa | 0 mm | - | - | - |
| 1777919792 | 22.22° C | 33% | 1009.9 hPa | 0 mm | - | - | - |
| 1777919491 | 22.78° C | 32% | 1009.9 hPa | 0 mm | - | - | - |
| 1777919190 | 22.78° C | 32% | 1009.9 hPa | 0 mm | - | - | - |
| 1777918589 | 23.33° C | 32% | 1009.7 hPa | 0 mm | - | - | - |
| 1777918185 | 23.33° C | 31% | 1009.6 hPa | 0 mm | - | - | - |
| 1777917885 | 23.33° C | 31% | 1009.6 hPa | 0 mm | - | - | - |
| 1777917584 | 23.33° C | 31% | 1009.5 hPa | 0 mm | - | - | - |
| 1777917283 | 23.89° C | 30% | 1009.5 hPa | 0 mm | - | - | - |
| 1777916130 | 23.89° C | 30% | 1009.5 hPa | 0 mm | - | - | - |
| 1777909765 | 25.56° C | 27% | 1009.7 hPa | 0 mm | - | - | - |
| 1777909162 | 25.56° C | 27% | 1009.8 hPa | 0 mm | - | - | - |
| 1777908862 | 25.56° C | 26% | 1009.8 hPa | 0 mm | - | - | - |
| 1777908273 | 25.56° C | 26% | 1009.8 hPa | 0 mm | - | - | - |
| 1777907972 | 25.56° C | 26% | 1009.8 hPa | 0 mm | - | - | - |
| 1777907671 | 26.11° C | 26% | 1009.8 hPa | 0 mm | - | - | - |
| 1777907370 | 26.11° C | 26% | 1009.9 hPa | 0 mm | - | - | - |
| 1777907069 | 26.11° C | 26% | 1009.9 hPa | 0 mm | - | - | - |
| 1777906468 | 26.11° C | 26% | 1010 hPa | 0 mm | - | - | - |
| 1777905285 | 26.11° C | 26% | 1010.1 hPa | 0 mm | - | - | - |
| 1777903694 | 26.67° C | 24% | 1010.2 hPa | 0 mm | - | - | - |
| 1777903394 | 26.67° C | 24% | 1010.2 hPa | 0 mm | - | - | - |
* Rain since midnight (hover to see other rain measurements)
** Current wind speed in m/s (hover to see current wind gust speed)